User: anonymous   Login
Location: NJAA Observatory
(40.6819°N, 74.8979°W)
Time: 00:08:16
(UTC-04:00)
Language:

Meteor 1-28 Rocket - Orbit

View from above orbital plane
View from above orbital plane
View from above satellite
View from above satellite

Ground track
Ground track

The orbit data is extracted from the following two-line orbital elements,

1 10114U 77057B   15149.00629123  .00001207  00000-0  67327-4 0  9995
2 10114 097.2310 357.9142 0016111 062.3974 297.8893 15.15254688 69885
Epoch (UTC): 29 May 2015 00:09:03
Eccentricity: 0.0016111
inclination: 97.2310°
perigee height: 509 km
apogee height: 531 km
right ascension of ascending node: 357.9142°
argument of perigee: 62.3974°
revolutions per day: 15.15254688
mean anomaly at epoch: 297.8893°
orbit number at epoch: 6988

The dashed part of the orbit path shows where the satellite is in the earth's shadow,  

DLR